"datetime","temp","dp","rain_mm","uv","mb"
"2019-07-23 00:00:00",16.2,15.4,0.0,0.0,1020.3
"2019-07-23 00:01:00",16.2,15.4,0.0,0.0,1020.4
"2019-07-23 00:02:00",16.2,15.4,0.0,0.0,1020.4
"2019-07-23 00:03:00",16.2,15.4,0.0,0.0,1020.4
"2019-07-23 00:04:00",16.2,15.4,0.0,0.0,1020.4
"2019-07-23 00:05:00",16.2,15.4,0.0,0.0,1020.4
"2019-07-23 00:06:00",16.1,15.3,0.0,0.0,1020.4
"2019-07-23 00:07:00",16.1,15.3,0.0,0.0,1020.4
"2019-07-23 00:08:00",16.1,15.3,0.0,0.0,1020.4
"2019-07-23 00:09:00",16.1,15.3,0.0,0.0,1020.4
"2019-07-23 00:10:00",16.0,15.2,0.0,0.0,1020.4
"2019-07-23 00:11:00",16.1,15.3,0.0,0.0,1020.4
"2019-07-23 00:12:00",16.1,15.3,0.0,0.0,1020.4
"2019-07-23 00:13:00",16.1,15.3,0.0,0.0,1020.4
"2019-07-23 00:14:00",16.1,15.3,0.0,0.0,1020.3
"2019-07-23 00:15:00",15.9,15.1,0.0,0.0,1020.3
"2019-07-23 00:16:00",15.9,15.1,0.0,0.0,1020.3
"2019-07-23 00:17:00",15.9,15.1,0.0,0.0,1020.3
"2019-07-23 00:18:00",15.9,15.1,0.0,0.0,1020.3
"2019-07-23 00:19:00",15.9,15.1,0.0,0.0,1020.4
"2019-07-23 00:20:00",15.9,15.1,0.0,0.0,1020.3
"2019-07-23 00:21:00",15.9,15.1,0.0,0.0,1020.3
"2019-07-23 00:22:00",15.9,15.1,0.0,0.0,1020.3
"2019-07-23 00:23:00",15.9,15.1,0.0,0.0,1020.4
"2019-07-23 00:24:00",15.9,15.1,0.0,0.0,1020.4
"2019-07-23 00:25:00",15.9,15.1,0.0,0.0,1020.4
"2019-07-23 00:26:00",15.8,15.0,0.0,0.0,1020.3
"2019-07-23 00:27:00",15.8,15.0,0.0,0.0,1020.4
"2019-07-23 00:28:00",15.8,15.0,0.0,0.0,1020.3
"2019-07-23 00:29:00",15.7,14.9,0.0,0.0,1020.4
"2019-07-23 00:30:00",15.7,14.9,0.0,0.0,1020.3
"2019-07-23 00:31:00",15.6,14.8,0.0,0.0,1020.3
"2019-07-23 00:32:00",15.6,14.8,0.0,0.0,1020.3
"2019-07-23 00:33:00",15.6,14.8,0.0,0.0,1020.3
"2019-07-23 00:34:00",15.6,14.8,0.0,0.0,1020.3
"2019-07-23 00:35:00",15.6,14.8,0.0,0.0,1020.2
"2019-07-23 00:36:00",15.5,14.7,0.0,0.0,1020.2
"2019-07-23 00:37:00",15.5,14.7,0.0,0.0,1020.2
"2019-07-23 00:38:00",15.5,14.7,0.0,0.0,1020.2
"2019-07-23 00:39:00",15.5,14.7,0.0,0.0,1020.2
"2019-07-23 00:40:00",15.6,14.8,0.0,0.0,1020.2
"2019-07-23 00:41:00",15.6,14.8,0.0,0.0,1020.2
"2019-07-23 00:42:00",15.6,14.8,0.0,0.0,1020.2
"2019-07-23 00:43:00",15.6,14.8,0.0,0.0,1020.2
"2019-07-23 00:44:00",15.6,14.8,0.0,0.0,1020.2
"2019-07-23 00:45:00",15.6,14.8,0.0,0.0,1020.2
"2019-07-23 00:46:00",15.5,14.7,0.0,0.0,1020.1
"2019-07-23 00:47:00",15.4,14.6,0.0,0.0,1020.2
"2019-07-23 00:48:00",15.4,14.6,0.0,0.0,1020.1
"2019-07-23 00:49:00",15.4,14.6,0.0,0.0,1020.1
"2019-07-23 00:50:00",15.4,14.6,0.0,0.0,1020.1
"2019-07-23 00:51:00",15.4,14.6,0.0,0.0,1020.1
"2019-07-23 00:52:00",15.4,14.6,0.0,0.0,1020.1
"2019-07-23 00:53:00",15.4,14.8,0.0,0.0,1020.2
"2019-07-23 00:54:00",15.4,14.8,0.0,0.0,1020.2
"2019-07-23 00:55:00",15.4,14.6,0.0,0.0,1020.1
"2019-07-23 00:56:00",15.3,14.5,0.0,0.0,1020.1
"2019-07-23 00:57:00",15.3,14.5,0.0,0.0,1020.1
"2019-07-23 00:58:00",15.2,14.4,0.0,0.0,1020.1
"2019-07-23 00:59:00",15.2,14.4,0.0,0.0,1020.1
"2019-07-23 01:00:00",15.2,14.4,0.0,0.0,1020.1
"2019-07-23 01:01:00",15.3,14.5,0.0,0.0,1020.1
"2019-07-23 01:02:00",15.2,14.4,0.0,0.0,1020.1
"2019-07-23 01:03:00",15.2,14.4,0.0,0.0,1020.1
"2019-07-23 01:04:00",15.2,14.4,0.0,0.0,1020.1
"2019-07-23 01:05:00",15.2,14.4,0.0,0.0,1020.1
"2019-07-23 01:06:00",15.2,14.4,0.0,0.0,1020.2
"2019-07-23 01:07:00",15.2,14.6,0.0,0.0,1020.1
"2019-07-23 01:08:00",15.3,14.5,0.0,0.0,1020.1
"2019-07-23 01:09:00",15.2,14.6,0.0,0.0,1020.1
"2019-07-23 01:10:00",15.3,14.7,0.0,0.0,1020.2
"2019-07-23 01:11:00",15.3,14.7,0.0,0.0,1020.1
"2019-07-23 01:12:00",15.3,14.5,0.0,0.0,1020.1
"2019-07-23 01:13:00",15.2,14.4,0.0,0.0,1020.1
"2019-07-23 01:14:00",15.2,14.4,0.0,0.0,1020.1
"2019-07-23 01:15:00",15.2,14.6,0.0,0.0,1020.1
"2019-07-23 01:16:00",15.2,14.4,0.0,0.0,1020.1
"2019-07-23 01:17:00",15.1,14.3,0.0,0.0,1020.1
"2019-07-23 01:18:00",15.1,14.3,0.0,0.0,1020.1
"2019-07-23 01:19:00",15.1,14.3,0.0,0.0,1020.1
"2019-07-23 01:20:00",15.0,14.2,0.0,0.0,1020.1
"2019-07-23 01:21:00",14.9,14.1,0.0,0.0,1020.1
"2019-07-23 01:22:00",14.9,14.1,0.0,0.0,1020.1
"2019-07-23 01:23:00",14.9,14.1,0.0,0.0,1020.1
"2019-07-23 01:24:00",14.9,14.1,0.0,0.0,1020.0
"2019-07-23 01:25:00",14.9,14.1,0.0,0.0,1020.0
"2019-07-23 01:26:00",15.0,14.4,0.0,0.0,1020.0
"2019-07-23 01:27:00",14.9,14.1,0.0,0.0,1020.0
"2019-07-23 01:28:00",14.9,14.1,0.0,0.0,1020.0
"2019-07-23 01:29:00",14.9,14.1,0.0,0.0,1020.0
"2019-07-23 01:30:00",14.8,14.0,0.0,0.0,1020.0
"2019-07-23 01:31:00",14.8,14.0,0.0,0.0,1019.9
"2019-07-23 01:32:00",14.8,14.0,0.0,0.0,1020.0
"2019-07-23 01:33:00",14.8,14.2,0.0,0.0,1020.0
"2019-07-23 01:34:00",14.8,14.2,0.0,0.0,1020.0
"2019-07-23 01:35:00",14.9,14.3,0.0,0.0,1020.0
"2019-07-23 01:36:00",14.9,14.3,0.0,0.0,1020.0
"2019-07-23 01:37:00",14.9,14.3,0.0,0.0,1020.0
"2019-07-23 01:38:00",14.8,14.0,0.0,0.0,1020.0
"2019-07-23 01:39:00",14.8,14.0,0.0,0.0,1020.0
"2019-07-23 01:40:00",14.8,14.0,0.0,0.0,1020.0
"2019-07-23 01:41:00",14.7,13.9,0.0,0.0,1020.0
"2019-07-23 01:42:00",14.7,13.9,0.0,0.0,1020.0
"2019-07-23 01:43:00",14.7,13.9,0.0,0.0,1020.0
"2019-07-23 01:44:00",14.7,14.1,0.0,0.0,1020.0
"2019-07-23 01:45:00",14.7,14.1,0.0,0.0,1020.0
"2019-07-23 01:46:00",14.7,14.1,0.0,0.0,1020.0
"2019-07-23 01:47:00",14.7,14.1,0.0,0.0,1020.0
"2019-07-23 01:48:00",14.7,14.1,0.0,0.0,1020.0
"2019-07-23 01:49:00",14.7,14.1,0.0,0.0,1020.0
"2019-07-23 01:50:00",14.7,14.1,0.0,0.0,1020.0
"2019-07-23 01:51:00",14.7,14.1,0.0,0.0,1020.0
"2019-07-23 01:52:00",14.7,14.1,0.0,0.0,1019.9
"2019-07-23 01:53:00",14.7,14.1,0.0,0.0,1019.9
"2019-07-23 01:54:00",14.7,14.1,0.0,0.0,1020.0
"2019-07-23 01:55:00",14.6,13.8,0.0,0.0,1019.9
"2019-07-23 01:56:00",14.6,13.8,0.0,0.0,1019.9
"2019-07-23 01:57:00",14.6,13.8,0.0,0.0,1019.9
"2019-07-23 01:58:00",14.6,14.0,0.0,0.0,1020.0
"2019-07-23 01:59:00",14.6,14.0,0.0,0.0,1020.0
"2019-07-23 02:00:00",14.6,14.0,0.0,0.0,1020.0
"2019-07-23 02:01:00",14.6,14.0,0.0,0.0,1020.0
"2019-07-23 02:02:00",14.6,13.8,0.0,0.0,1020.0
"2019-07-23 02:03:00",14.6,13.8,0.0,0.0,1020.0
"2019-07-23 02:04:00",14.6,14.0,0.0,0.0,1020.0
"2019-07-23 02:05:00",14.5,13.7,0.0,0.0,1020.1
"2019-07-23 02:06:00",14.4,13.6,0.0,0.0,1020.1
"2019-07-23 02:07:00",14.4,13.6,0.0,0.0,1020.2
"2019-07-23 02:08:00",14.4,13.6,0.0,0.0,1020.1
"2019-07-23 02:09:00",14.4,13.8,0.0,0.0,1020.2
"2019-07-23 02:10:00",14.4,13.8,0.0,0.0,1020.2
"2019-07-23 02:11:00",14.4,13.8,0.0,0.0,1020.1
"2019-07-23 02:12:00",14.4,13.8,0.0,0.0,1020.1
"2019-07-23 02:13:00",14.5,13.9,0.0,0.0,1020.1
"2019-07-23 02:14:00",14.6,14.0,0.0,0.0,1020.1
"2019-07-23 02:15:00",14.6,14.0,0.0,0.0,1020.1
"2019-07-23 02:16:00",14.6,14.0,0.0,0.0,1020.1
"2019-07-23 02:17:00",14.6,14.0,0.0,0.0,1020.1
"2019-07-23 02:18:00",14.6,14.0,0.0,0.0,1020.1
"2019-07-23 02:19:00",14.5,13.9,0.0,0.0,1020.1
"2019-07-23 02:20:00",14.4,13.8,0.0,0.0,1020.1
"2019-07-23 02:21:00",14.4,13.6,0.0,0.0,1020.1
"2019-07-23 02:22:00",14.3,13.5,0.0,0.0,1020.2
"2019-07-23 02:23:00",14.3,13.5,0.0,0.0,1020.2
"2019-07-23 02:24:00",14.3,13.7,0.0,0.0,1020.2
"2019-07-23 02:25:00",14.3,13.7,0.0,0.0,1020.2
"2019-07-23 02:26:00",14.3,13.5,0.0,0.0,1020.2
"2019-07-23 02:27:00",14.3,13.5,0.0,0.0,1020.1
"2019-07-23 02:28:00",14.3,13.5,0.0,0.0,1020.1
"2019-07-23 02:29:00",14.3,13.7,0.0,0.0,1020.1
"2019-07-23 02:30:00",14.3,13.7,0.0,0.0,1020.1
"2019-07-23 02:31:00",14.3,13.7,0.0,0.0,1020.1
"2019-07-23 02:32:00",14.3,13.7,0.0,0.0,1020.1
"2019-07-23 02:33:00",14.3,13.7,0.0,0.0,1020.0
"2019-07-23 02:34:00",14.2,13.6,0.0,0.0,1020.0
"2019-07-23 02:35:00",14.2,13.4,0.0,0.0,1020.0
"2019-07-23 02:36:00",14.2,13.4,0.0,0.0,1020.0
"2019-07-23 02:37:00",14.1,13.3,0.0,0.0,1020.0
"2019-07-23 02:38:00",14.1,13.3,0.0,0.0,1019.9
"2019-07-23 02:39:00",14.1,13.5,0.0,0.0,1019.9
"2019-07-23 02:40:00",14.1,13.5,0.0,0.0,1019.9
"2019-07-23 02:41:00",14.1,13.5,0.0,0.0,1019.9
"2019-07-23 02:42:00",14.1,13.5,0.0,0.0,1019.9
"2019-07-23 02:43:00",14.1,13.5,0.0,0.0,1019.9
"2019-07-23 02:44:00",14.1,13.5,0.0,0.0,1019.9
"2019-07-23 02:45:00",14.2,13.6,0.0,0.0,1019.9
"2019-07-23 02:46:00",14.2,13.6,0.0,0.0,1019.9
"2019-07-23 02:47:00",14.2,13.6,0.0,0.0,1019.9
"2019-07-23 02:48:00",14.1,13.5,0.0,0.0,1020.0
"2019-07-23 02:49:00",14.1,13.5,0.0,0.0,1019.9
"2019-07-23 02:50:00",14.0,13.4,0.0,0.0,1019.9
"2019-07-23 02:51:00",13.9,13.3,0.0,0.0,1019.9
"2019-07-23 02:52:00",13.9,13.1,0.0,0.0,1019.9
"2019-07-23 02:53:00",13.9,13.1,0.0,0.0,1019.9
"2019-07-23 02:54:00",13.9,13.1,0.0,0.0,1019.8
"2019-07-23 02:55:00",13.9,13.3,0.0,0.0,1019.9
"2019-07-23 02:56:00",13.9,13.3,0.0,0.0,1019.9
"2019-07-23 02:57:00",13.9,13.3,0.0,0.0,1019.8
"2019-07-23 02:58:00",13.9,13.3,0.0,0.0,1019.9
"2019-07-23 02:59:00",13.9,13.3,0.0,0.0,1019.9
"2019-07-23 03:00:00",13.9,13.1,0.0,0.0,1019.9
"2019-07-23 03:01:00",13.8,13.0,0.0,0.0,1019.8
"2019-07-23 03:02:00",13.8,13.0,0.0,0.0,1019.8
"2019-07-23 03:03:00",13.8,13.2,0.0,0.0,1019.8
"2019-07-23 03:04:00",13.8,13.2,0.0,0.0,1019.8
"2019-07-23 03:05:00",13.8,13.2,0.0,0.0,1019.8
"2019-07-23 03:06:00",13.8,13.2,0.0,0.0,1019.8
"2019-07-23 03:07:00",13.8,13.2,0.0,0.0,1019.8
"2019-07-23 03:08:00",13.8,13.2,0.0,0.0,1019.8
"2019-07-23 03:09:00",13.7,13.1,0.0,0.0,1019.8
"2019-07-23 03:10:00",13.7,13.1,0.0,0.0,1019.8
"2019-07-23 03:11:00",13.7,13.1,0.0,0.0,1019.8
"2019-07-23 03:12:00",13.7,13.1,0.0,0.0,1019.8
"2019-07-23 03:13:00",13.8,13.2,0.0,0.0,1019.8
"2019-07-23 03:14:00",13.8,13.2,0.0,0.0,1019.8
"2019-07-23 03:15:00",13.8,13.2,0.0,0.0,1019.8
"2019-07-23 03:16:00",13.7,13.1,0.0,0.0,1019.8
"2019-07-23 03:17:00",13.7,13.1,0.0,0.0,1019.7
"2019-07-23 03:18:00",13.7,13.1,0.0,0.0,1019.8
"2019-07-23 03:19:00",13.7,13.1,0.0,0.0,1019.7
"2019-07-23 03:20:00",13.6,13.0,0.0,0.0,1019.8
"2019-07-23 03:21:00",13.6,12.8,0.0,0.0,1019.8
"2019-07-23 03:22:00",13.6,13.0,0.0,0.0,1019.8
"2019-07-23 03:23:00",13.6,13.0,0.0,0.0,1019.8
"2019-07-23 03:24:00",13.6,13.0,0.0,0.0,1019.7
"2019-07-23 03:25:00",13.6,13.0,0.0,0.0,1019.7
"2019-07-23 03:26:00",13.6,13.0,0.0,0.0,1019.7
"2019-07-23 03:27:00",13.5,12.9,0.0,0.0,1019.7
"2019-07-23 03:28:00",13.5,12.9,0.0,0.0,1019.7
"2019-07-23 03:29:00",13.5,12.9,0.0,0.0,1019.6
"2019-07-23 03:30:00",13.5,12.9,0.0,0.0,1019.7
"2019-07-23 03:31:00",13.5,12.9,0.0,0.0,1019.7
"2019-07-23 03:32:00",13.5,12.9,0.0,0.0,1019.7
"2019-07-23 03:33:00",13.5,12.9,0.0,0.0,1019.7
"2019-07-23 03:34:00",13.6,13.0,0.0,0.0,1019.6
"2019-07-23 03:35:00",13.5,12.9,0.0,0.0,1019.7
"2019-07-23 03:36:00",13.4,12.8,0.0,0.0,1019.7
"2019-07-23 03:37:00",13.4,12.8,0.0,0.0,1019.7
"2019-07-23 03:38:00",13.4,12.8,0.0,0.0,1019.7
"2019-07-23 03:39:00",13.4,12.8,0.0,0.0,1019.6
"2019-07-23 03:40:00",13.3,12.7,0.0,0.0,1019.7
"2019-07-23 03:41:00",13.3,12.7,0.0,0.0,1019.6
"2019-07-23 03:42:00",13.3,12.7,0.0,0.0,1019.7
"2019-07-23 03:43:00",13.4,12.8,0.0,0.0,1019.6
"2019-07-23 03:44:00",13.4,12.8,0.0,0.0,1019.6
"2019-07-23 03:45:00",13.4,12.8,0.0,0.0,1019.6
"2019-07-23 03:46:00",13.4,12.8,0.0,0.0,1019.6
"2019-07-23 03:48:00",13.3,12.7,0.0,0.0,1019.6
"2019-07-23 03:49:00",13.3,12.7,0.0,0.0,1019.6
"2019-07-23 03:50:00",13.3,12.7,0.0,0.0,1019.6
"2019-07-23 03:51:00",13.2,12.6,0.0,0.0,1019.6
"2019-07-23 03:52:00",13.2,12.6,0.0,0.0,1019.6
"2019-07-23 03:53:00",13.3,12.7,0.0,0.0,1019.6
"2019-07-23 03:54:00",13.3,12.7,0.0,0.0,1019.6
"2019-07-23 03:55:00",13.3,12.7,0.0,0.0,1019.6
"2019-07-23 03:56:00",13.3,12.7,0.0,0.0,1019.6
"2019-07-23 03:57:00",13.3,12.7,0.0,0.0,1019.6
"2019-07-23 03:58:00",13.3,12.7,0.0,0.0,1019.6
"2019-07-23 03:59:00",13.3,12.7,0.0,0.0,1019.6
"2019-07-23 04:00:00",13.3,12.7,0.0,0.0,1019.6
"2019-07-23 04:01:00",13.3,12.7,0.0,0.0,1019.6
"2019-07-23 04:02:00",13.4,12.8,0.0,0.0,1019.6
"2019-07-23 04:03:00",13.4,12.8,0.0,0.0,1019.5
"2019-07-23 04:04:00",13.4,12.8,0.0,0.0,1019.5
"2019-07-23 04:05:00",13.4,12.8,0.0,0.0,1019.6
"2019-07-23 04:06:00",13.4,12.8,0.0,0.0,1019.6
"2019-07-23 04:07:00",13.4,12.8,0.0,0.0,1019.6
"2019-07-23 04:08:00",13.4,12.8,0.0,0.0,1019.6
"2019-07-23 04:09:00",13.4,12.8,0.0,0.0,1019.5
"2019-07-23 04:10:00",13.4,12.8,0.0,0.0,1019.5
"2019-07-23 04:11:00",13.4,12.8,0.0,0.0,1019.5
"2019-07-23 04:12:00",13.4,12.8,0.0,0.0,1019.5
"2019-07-23 04:13:00",13.4,12.8,0.0,0.0,1019.5
"2019-07-23 04:14:00",13.4,12.8,0.0,0.0,1019.5
"2019-07-23 04:15:00",13.4,12.8,0.0,0.0,1019.5
"2019-07-23 04:16:00",13.5,12.9,0.0,0.0,1019.5
"2019-07-23 04:17:00",13.5,12.9,0.0,0.0,1019.5
"2019-07-23 04:18:00",13.5,12.9,0.0,0.0,1019.5
"2019-07-23 04:19:00",13.6,13.0,0.0,0.0,1019.6
"2019-07-23 04:20:00",13.6,13.0,0.0,0.0,1019.5
"2019-07-23 04:21:00",13.6,13.0,0.0,0.0,1019.5
"2019-07-23 04:22:00",13.6,13.0,0.0,0.0,1019.5
"2019-07-23 04:23:00",13.6,13.0,0.0,0.0,1019.5
"2019-07-23 04:24:00",13.6,13.0,0.0,0.0,1019.5
"2019-07-23 04:25:00",13.7,13.1,0.0,0.0,1019.4
"2019-07-23 04:26:00",13.7,13.1,0.0,0.0,1019.4
"2019-07-23 04:27:00",13.7,13.1,0.0,0.0,1019.4
"2019-07-23 04:28:00",13.8,13.2,0.0,0.0,1019.4
"2019-07-23 04:29:00",13.7,13.1,0.0,0.0,1019.4
"2019-07-23 04:30:00",13.7,13.1,0.0,0.0,1019.4
"2019-07-23 04:31:00",13.8,13.2,0.0,0.0,1019.4
"2019-07-23 04:32:00",13.7,13.1,0.0,0.0,1019.4
"2019-07-23 04:33:00",13.7,13.1,0.0,0.0,1019.3
"2019-07-23 04:34:00",13.7,13.1,0.0,0.0,1019.4
"2019-07-23 04:35:00",13.7,13.1,0.0,0.0,1019.4
"2019-07-23 04:36:00",13.7,13.1,0.0,0.0,1019.4
"2019-07-23 04:37:00",13.7,13.1,0.0,0.0,1019.4
"2019-07-23 04:38:00",13.7,13.1,0.0,0.0,1019.3
"2019-07-23 04:39:00",13.7,13.1,0.0,0.0,1019.3
"2019-07-23 04:40:00",13.7,13.1,0.0,0.0,1019.4
"2019-07-23 04:41:00",13.7,13.1,0.0,0.0,1019.3
"2019-07-23 04:42:00",13.7,13.1,0.0,0.0,1019.4
"2019-07-23 04:43:00",13.7,13.1,0.0,0.0,1019.4
"2019-07-23 04:44:00",13.7,13.1,0.0,0.0,1019.4
"2019-07-23 04:45:00",13.7,13.1,0.0,0.0,1019.4
"2019-07-23 04:46:00",13.7,13.1,0.0,0.0,1019.4
"2019-07-23 04:47:00",13.7,13.1,0.0,0.0,1019.4
"2019-07-23 04:48:00",13.7,13.1,0.0,0.0,1019.4
"2019-07-23 04:49:00",13.7,13.1,0.0,0.0,1019.4
"2019-07-23 04:50:00",13.7,13.1,0.0,0.0,1019.3
"2019-07-23 04:51:00",13.7,13.1,0.0,0.0,1019.3
"2019-07-23 04:52:00",13.7,13.1,0.0,0.0,1019.3
"2019-07-23 04:53:00",13.7,13.1,0.0,0.0,1019.3
"2019-07-23 04:54:00",13.7,13.1,0.0,0.0,1019.3
"2019-07-23 04:55:00",13.7,13.1,0.0,0.0,1019.3
"2019-07-23 04:56:00",13.7,13.1,0.0,0.0,1019.3
"2019-07-23 04:57:00",13.7,13.1,0.0,0.0,1019.3
"2019-07-23 04:58:00",13.7,13.1,0.0,0.0,1019.3
"2019-07-23 04:59:00",13.6,13.0,0.0,0.0,1019.3
"2019-07-23 05:00:00",13.6,13.0,0.0,0.0,1019.3
"2019-07-23 05:01:00",13.6,13.0,0.0,0.0,1019.3
"2019-07-23 05:02:00",13.7,13.1,0.0,0.0,1019.3
"2019-07-23 05:03:00",13.7,13.1,0.0,0.0,1019.3
"2019-07-23 05:04:00",13.7,13.1,0.0,0.0,1019.3
"2019-07-23 05:05:00",13.7,13.2,0.0,0.0,1019.3
"2019-07-23 05:06:00",13.7,13.1,0.0,0.0,1019.3
"2019-07-23 05:07:00",13.7,13.1,0.0,0.0,1019.3
"2019-07-23 05:08:00",13.6,13.0,0.0,0.0,1019.3
"2019-07-23 05:09:00",13.6,13.0,0.0,0.0,1019.3
"2019-07-23 05:10:00",13.6,13.0,0.0,0.0,1019.3
"2019-07-23 05:11:00",13.6,13.0,0.0,0.0,1019.3
"2019-07-23 05:12:00",13.6,13.0,0.0,0.0,1019.3
"2019-07-23 05:13:00",13.6,13.0,0.0,0.0,1019.3
"2019-07-23 05:14:00",13.6,13.0,0.0,0.0,1019.3
"2019-07-23 05:15:00",13.6,13.0,0.0,0.0,1019.3
"2019-07-23 05:16:00",13.6,13.0,0.0,0.0,1019.3
"2019-07-23 05:17:00",13.6,13.0,0.0,0.0,1019.3
"2019-07-23 05:18:00",13.6,13.0,0.0,0.0,1019.3
"2019-07-23 05:19:00",13.6,13.0,0.0,0.0,1019.2
"2019-07-23 05:20:00",13.6,13.0,0.0,0.0,1019.3
"2019-07-23 05:21:00",13.6,13.0,0.0,0.0,1019.3
"2019-07-23 05:22:00",13.6,13.0,0.0,0.0,1019.3
"2019-07-23 05:23:00",13.6,13.1,0.0,0.0,1019.3
"2019-07-23 05:24:00",13.6,13.1,0.0,0.0,1019.3
"2019-07-23 05:25:00",13.6,13.1,0.0,0.0,1019.3
"2019-07-23 05:26:00",13.6,13.0,0.0,0.0,1019.3
"2019-07-23 05:27:00",13.6,13.0,0.0,0.0,1019.3
"2019-07-23 05:28:00",13.6,13.0,0.0,0.0,1019.3
"2019-07-23 05:29:00",13.6,13.0,0.0,0.0,1019.3
"2019-07-23 05:30:00",13.6,13.0,0.0,0.0,1019.3
"2019-07-23 05:31:00",13.6,13.0,0.0,0.0,1019.3
"2019-07-23 05:32:00",13.6,13.1,0.0,0.0,1019.3
"2019-07-23 05:33:00",13.6,13.0,0.0,0.0,1019.3
"2019-07-23 05:34:00",13.6,13.0,0.0,0.0,1019.3
"2019-07-23 05:35:00",13.6,13.0,0.0,0.0,1019.3
"2019-07-23 05:36:00",13.6,13.1,0.0,0.0,1019.3
"2019-07-23 05:37:00",13.6,13.1,0.0,0.0,1019.3
"2019-07-23 05:38:00",13.7,13.2,0.0,0.0,1019.2
"2019-07-23 05:39:00",13.7,13.2,0.0,0.0,1019.2
"2019-07-23 05:40:00",13.7,13.2,0.0,0.0,1019.2
"2019-07-23 05:41:00",13.7,13.2,0.0,0.0,1019.2
"2019-07-23 05:42:00",13.8,13.3,0.0,0.0,1019.2
"2019-07-23 05:43:00",13.8,13.3,0.0,0.0,1019.2
"2019-07-23 05:44:00",13.8,13.3,0.0,0.0,1019.2
"2019-07-23 05:45:00",13.8,13.3,0.0,0.0,1019.2
"2019-07-23 05:46:00",13.8,13.3,0.0,0.0,1019.2
"2019-07-23 05:47:00",13.8,13.3,0.0,0.0,1019.1
"2019-07-23 05:48:00",13.9,13.4,0.0,0.0,1019.2
"2019-07-23 05:49:00",13.9,13.4,0.0,0.0,1019.2
"2019-07-23 05:50:00",13.9,13.4,0.0,0.0,1019.2
"2019-07-23 05:51:00",13.9,13.4,0.0,0.0,1019.2
"2019-07-23 05:52:00",13.9,13.4,0.0,0.0,1019.2
"2019-07-23 05:53:00",13.9,13.4,0.0,0.0,1019.1
"2019-07-23 05:54:00",13.9,13.4,0.0,0.0,1019.1
"2019-07-23 05:55:00",13.9,13.4,0.0,0.0,1019.1
"2019-07-23 05:56:00",13.9,13.4,0.0,0.0,1019.2
"2019-07-23 05:57:00",13.9,13.4,0.0,0.0,1019.1
"2019-07-23 05:58:00",13.9,13.4,0.0,0.0,1019.2
"2019-07-23 05:59:00",13.9,13.4,0.0,0.0,1019.1
"2019-07-23 06:00:00",13.9,13.4,0.0,0.0,1019.1
"2019-07-23 06:01:00",13.9,13.4,0.0,0.0,1019.2
"2019-07-23 06:02:00",13.9,13.4,0.0,0.0,1019.2
"2019-07-23 06:03:00",13.9,13.4,0.0,0.0,1019.1
"2019-07-23 06:04:00",13.9,13.4,0.0,0.0,1019.1
"2019-07-23 06:05:00",13.9,13.4,0.0,0.0,1019.1
"2019-07-23 06:06:00",13.9,13.4,0.0,0.0,1019.0
"2019-07-23 06:07:00",13.9,13.4,0.0,0.0,1019.0
"2019-07-23 06:08:00",13.9,13.4,0.0,0.0,1019.0
"2019-07-23 06:09:00",13.9,13.4,0.0,0.0,1019.0
"2019-07-23 06:10:00",13.9,13.4,0.0,0.0,1019.1
"2019-07-23 06:11:00",13.9,13.4,0.0,0.0,1019.0
"2019-07-23 06:12:00",13.9,13.4,0.0,0.0,1019.0
"2019-07-23 06:13:00",14.0,13.5,0.0,0.0,1019.1
"2019-07-23 06:14:00",14.0,13.5,0.0,0.0,1019.0
"2019-07-23 06:15:00",14.1,13.6,0.0,0.0,1019.0
"2019-07-23 06:16:00",14.1,13.6,0.0,0.0,1019.0
"2019-07-23 06:17:00",14.1,13.6,0.0,0.0,1019.0
"2019-07-23 06:18:00",14.1,13.6,0.0,0.0,1019.0
"2019-07-23 06:19:00",14.1,13.6,0.0,0.0,1019.0
"2019-07-23 06:20:00",14.1,13.6,0.0,0.0,1019.0
"2019-07-23 06:21:00",14.1,13.6,0.0,0.0,1019.1
"2019-07-23 06:22:00",14.1,13.6,0.0,0.0,1019.0
"2019-07-23 06:23:00",14.2,13.7,0.0,0.0,1019.0
"2019-07-23 06:24:00",14.2,13.7,0.0,0.0,1019.0
"2019-07-23 06:25:00",14.2,13.7,0.0,0.0,1019.0
"2019-07-23 06:26:00",14.2,13.7,0.0,0.0,1019.1
"2019-07-23 06:27:00",14.2,13.7,0.0,0.0,1019.0
"2019-07-23 06:28:00",14.2,13.7,0.0,0.0,1019.0
"2019-07-23 06:29:00",14.2,13.7,0.0,0.0,1019.0
"2019-07-23 06:30:00",14.3,13.8,0.0,0.0,1019.0
"2019-07-23 06:31:00",14.3,13.8,0.0,0.0,1019.0
"2019-07-23 06:32:00",14.3,13.8,0.0,0.0,1019.0
"2019-07-23 06:33:00",14.3,13.8,0.0,0.0,1019.0
"2019-07-23 06:34:00",14.3,13.8,0.0,0.0,1019.1
"2019-07-23 06:35:00",14.3,13.8,0.0,0.0,1019.0
"2019-07-23 06:36:00",14.3,13.8,0.0,0.0,1019.0
"2019-07-23 06:37:00",14.4,13.9,0.0,0.0,1019.0
"2019-07-23 06:38:00",14.4,13.9,0.0,0.0,1019.0
"2019-07-23 06:39:00",14.4,13.9,0.0,0.0,1019.0
"2019-07-23 06:40:00",14.4,13.9,0.0,0.0,1019.0
"2019-07-23 06:41:00",14.5,14.0,0.0,0.0,1019.1
"2019-07-23 06:42:00",14.5,14.0,0.0,0.0,1019.1
"2019-07-23 06:43:00",14.6,14.1,0.0,0.0,1019.1
"2019-07-23 06:44:00",14.5,14.0,0.0,0.0,1019.1
"2019-07-23 06:45:00",14.6,14.1,0.0,0.0,1019.1
"2019-07-23 06:46:00",14.6,14.1,0.0,0.0,1019.2
"2019-07-23 06:47:00",14.6,14.1,0.0,0.0,1019.1
"2019-07-23 06:48:00",14.7,14.2,0.0,0.0,1019.1
"2019-07-23 06:49:00",14.7,14.2,0.0,0.0,1019.1
"2019-07-23 06:50:00",14.7,14.2,0.0,0.0,1019.1
"2019-07-23 06:51:00",14.8,14.3,0.0,0.0,1019.2
"2019-07-23 06:52:00",14.8,14.3,0.0,0.0,1019.1
"2019-07-23 06:53:00",14.9,14.4,0.0,0.0,1019.1
"2019-07-23 06:54:00",14.9,14.4,0.0,0.0,1019.1
"2019-07-23 06:55:00",14.9,14.4,0.0,0.0,1019.1
"2019-07-23 06:56:00",15.0,14.5,0.0,0.0,1019.1
"2019-07-23 06:57:00",15.1,14.6,0.0,0.0,1019.1
"2019-07-23 06:58:00",15.1,14.6,0.0,0.0,1019.1
"2019-07-23 06:59:00",15.1,14.6,0.0,0.0,1019.1
"2019-07-23 07:00:00",15.1,14.6,0.0,0.0,1019.1
"2019-07-23 07:01:00",15.1,14.6,0.0,0.0,1019.1
"2019-07-23 07:02:00",15.1,14.6,0.0,0.0,1019.0
"2019-07-23 07:03:00",15.1,14.6,0.0,0.0,1019.1
"2019-07-23 07:04:00",15.1,14.6,0.0,0.0,1019.0
"2019-07-23 07:05:00",15.2,14.7,0.0,0.0,1019.0
"2019-07-23 07:06:00",15.2,14.7,0.0,0.0,1019.0
"2019-07-23 07:07:00",15.2,14.7,0.0,0.0,1018.9
"2019-07-23 07:08:00",15.3,14.8,0.0,0.0,1018.9
"2019-07-23 07:09:00",15.2,14.7,0.0,0.0,1018.9
"2019-07-23 07:10:00",15.3,14.8,0.0,0.0,1018.9
"2019-07-23 07:11:00",15.3,14.8,0.0,0.0,1018.8
"2019-07-23 07:12:00",15.3,14.8,0.0,0.0,1018.9
"2019-07-23 07:13:00",15.3,14.8,0.0,0.0,1018.8
"2019-07-23 07:14:00",15.3,14.8,0.0,0.0,1018.8
"2019-07-23 07:15:00",15.4,14.9,0.0,0.0,1018.8
"2019-07-23 07:16:00",15.4,14.9,0.0,0.0,1018.8
"2019-07-23 07:17:00",15.4,14.9,0.0,0.0,1018.8
"2019-07-23 07:18:00",15.5,15.0,0.0,0.0,1018.8
"2019-07-23 07:19:00",15.6,15.1,0.0,0.0,1018.8
"2019-07-23 07:20:00",15.6,15.1,0.0,0.0,1018.9
"2019-07-23 07:21:00",15.6,15.1,0.0,0.0,1018.8
"2019-07-23 07:22:00",15.6,15.1,0.0,0.0,1018.9
"2019-07-23 07:23:00",15.6,15.1,0.0,0.0,1018.9
"2019-07-23 07:24:00",15.6,15.1,0.0,0.0,1018.9
"2019-07-23 07:25:00",15.7,15.2,0.0,0.5,1018.8
"2019-07-23 07:26:00",15.7,15.2,0.0,0.5,1018.8
"2019-07-23 07:27:00",15.8,15.3,0.0,0.5,1018.8
"2019-07-23 07:28:00",15.8,15.3,0.0,0.5,1018.8
"2019-07-23 07:29:00",15.9,15.4,0.0,0.5,1018.8
"2019-07-23 07:30:00",15.9,15.4,0.0,0.5,1018.8
"2019-07-23 07:31:00",15.9,15.4,0.0,0.5,1018.8
"2019-07-23 07:32:00",16.0,15.5,0.0,0.5,1018.8
"2019-07-23 07:33:00",16.0,15.5,0.0,0.5,1018.8
"2019-07-23 07:34:00",16.1,15.6,0.0,0.5,1018.8
"2019-07-23 07:35:00",16.1,15.6,0.0,0.5,1018.8
"2019-07-23 07:36:00",16.2,15.7,0.0,0.5,1018.8
"2019-07-23 07:37:00",16.2,15.7,0.0,0.5,1018.9
"2019-07-23 07:38:00",16.3,15.8,0.0,0.5,1018.8
"2019-07-23 07:39:00",16.3,15.8,0.0,0.5,1018.8
"2019-07-23 07:40:00",16.3,15.8,0.0,0.6,1018.8
"2019-07-23 07:41:00",16.3,15.8,0.0,0.6,1018.8
"2019-07-23 07:42:00",16.3,15.8,0.0,0.6,1018.8
"2019-07-23 07:43:00",16.4,15.9,0.0,0.6,1018.8
"2019-07-23 07:44:00",16.4,15.9,0.0,0.6,1018.7
"2019-07-23 07:45:00",16.4,15.9,0.0,0.6,1018.7
"2019-07-23 07:46:00",16.4,15.9,0.0,0.6,1018.7
"2019-07-23 07:47:00",16.6,16.1,0.0,0.7,1018.7
"2019-07-23 07:48:00",16.6,16.1,0.0,0.7,1018.7
"2019-07-23 07:49:00",16.7,16.2,0.0,0.7,1018.7
"2019-07-23 07:50:00",16.8,16.3,0.0,0.7,1018.7
"2019-07-23 07:51:00",16.8,16.3,0.0,0.8,1018.6
"2019-07-23 07:52:00",16.8,16.3,0.0,0.8,1018.7
"2019-07-23 07:53:00",16.9,16.4,0.0,0.8,1018.6
"2019-07-23 07:54:00",16.9,16.4,0.0,0.8,1018.7
"2019-07-23 07:55:00",17.1,16.6,0.0,0.8,1018.7
"2019-07-23 07:56:00",17.1,16.6,0.0,0.9,1018.6
"2019-07-23 07:57:00",17.1,16.6,0.0,0.9,1018.7
"2019-07-23 07:58:00",17.0,16.5,0.0,0.8,1018.7
"2019-07-23 07:59:00",17.1,16.6,0.0,0.8,1018.7
"2019-07-23 08:00:00",17.2,16.7,0.0,0.8,1018.6
"2019-07-23 08:01:00",17.2,16.7,0.0,0.8,1018.6
"2019-07-23 08:02:00",17.3,16.8,0.0,0.8,1018.6
"2019-07-23 08:03:00",17.3,16.8,0.0,0.8,1018.6
"2019-07-23 08:04:00",17.4,16.9,0.0,0.8,1018.6
"2019-07-23 08:05:00",17.6,17.1,0.0,0.8,1018.6
"2019-07-23 08:06:00",17.6,17.1,0.0,0.8,1018.5
"2019-07-23 08:07:00",17.7,17.2,0.0,0.8,1018.5
"2019-07-23 08:08:00",17.7,17.1,0.0,0.9,1018.5
"2019-07-23 08:09:00",17.8,17.2,0.0,0.9,1018.5
"2019-07-23 08:10:00",17.8,17.2,0.0,0.9,1018.4
"2019-07-23 08:11:00",17.9,17.3,0.0,0.9,1018.5
"2019-07-23 08:12:00",17.9,17.1,0.0,0.9,1018.5
"2019-07-23 08:13:00",18.0,17.4,0.0,0.8,1018.4
"2019-07-23 08:14:00",18.0,17.4,0.0,0.8,1018.4
"2019-07-23 08:15:00",18.1,17.3,0.0,0.8,1018.4
"2019-07-23 08:16:00",18.1,17.3,0.0,0.8,1018.3
"2019-07-23 08:17:00",18.2,17.4,0.0,0.9,1018.3
"2019-07-23 08:18:00",18.2,17.4,0.0,0.9,1018.3
"2019-07-23 08:19:00",18.3,17.5,0.0,0.9,1018.4
"2019-07-23 08:20:00",18.4,17.6,0.0,0.8,1018.4
"2019-07-23 08:21:00",18.4,17.6,0.0,0.8,1018.3
"2019-07-23 08:22:00",18.5,17.7,0.0,0.9,1018.3
"2019-07-23 08:23:00",18.6,17.8,0.0,0.9,1018.3
"2019-07-23 08:24:00",18.6,17.8,0.0,0.9,1018.3
"2019-07-23 08:25:00",18.7,17.7,0.0,0.9,1018.3
"2019-07-23 08:26:00",18.7,17.7,0.0,1.0,1018.3
"2019-07-23 08:27:00",18.8,17.8,0.0,1.0,1018.3
"2019-07-23 08:28:00",18.9,17.9,0.0,1.0,1018.3
"2019-07-23 08:29:00",18.9,17.9,0.0,1.0,1018.3